Spokane Fairchild, WA

10:44 PM PDT on September 20, 2017 (GMT -0700)
Fairchild Air Force Base

Weather History for KSKA - March, 2013

Change the Weather History Date:

Saturday, March 16, 2013

  Actual Average Record
Temperature  
Mean Temperature 42 °F -  
Max Temperature 50 °F 47 °F 57 °F (2004)
Min Temperature 34 °F 30 °F 24 °F (2002)
Degree Days  
Heating Degree Days 22    
Moisture  
Dew Point 35 °F    
Average Humidity 78    
Maximum Humidity 93    
Minimum Humidity 57    
Precipitation  
Precipitation 0.02 in - - ()
Sea Level Pressure  
Sea Level Pressure 29.83 in    
Wind  
Wind Speed 13 mph (SSW)    
Max Wind Speed 26 mph    
Max Gust Speed 38 mph    
Visibility 10 miles    
Events Rain , Snow    
Averages and records for this station are not official NWS values.
T = Trace of Precipitation, MM = Missing Value Source: NWS Daily Summary

Daily Weather History Graph

Daily Weather History Graph

Search for Another Location

Airport or City:

Trip Planner

Search our weather history database for the weather conditions in past years. The results will help you decide how hot, cold, wet, or windy it might be!

Date:

Astronomy

Mar. 16, 2013 Rise Set
Actual Time 7:00 AM PDT 6:58 PM PDT
Civil Twilight 6:30 AM PDT 7:28 PM PDT
Nautical Twilight 5:54 AM PDT 8:04 PM PDT
Astronomical Twilight 5:17 AM PDT 8:41 PM PDT
Moon 9:12 AM PDT (3/16) No Moon Set
Length of Visible Light 12h 58m
Length of Day
11h 57m
Waxing Crescent, 24% of the Moon is Illuminated
Mar 16
Waxing Crescent
Mar 19
First Quarter
Mar 27
Full
Apr 2
Last Quarter
Apr 10
New

Hourly Weather History & Observations

Time (PDT) Temp. Windchill Dew Point Humidity Pressure Visibility Wind Dir Wind Speed Gust Speed Precip Events Conditions
12:58 AM 41.9 °F 36.3 °F 38.7 °F 88% 30.05 in 10.0 mi South 9.2 mph - N/A   Mostly Cloudy
1:24 AM 41.0 °F 34.7 °F 39.2 °F 93% 30.01 in 10.0 mi South 10.4 mph - N/A   Scattered Clouds
1:38 AM 41.0 °F 34.3 °F 39.2 °F 93% 30.01 in 10.0 mi South 11.5 mph - N/A   Partly Cloudy
1:58 AM 41.5 °F 35.0 °F 38.7 °F 89% 30.04 in 10.0 mi South 11.5 mph - 0.00 in   Scattered Clouds
2:25 AM 41.0 °F 34.7 °F 39.2 °F 93% 30.01 in 10.0 mi South 10.4 mph - N/A   Partly Cloudy
2:34 AM 41.0 °F 34.7 °F 37.4 °F 87% 30.00 in 10.0 mi South 10.4 mph - N/A   Partly Cloudy
2:58 AM 40.1 °F 33.6 °F 37.8 °F 91% 30.03 in 10.0 mi South 10.4 mph - 0.00 in   Mostly Cloudy
3:58 AM 39.4 °F 33.2 °F 37.2 °F 92% 30.01 in 10.0 mi SSW 9.2 mph - N/A   Overcast
4:58 AM 39.7 °F 34.3 °F 36.9 °F 89% 29.99 in 10.0 mi South 8.1 mph - N/A   Mostly Cloudy
5:11 AM 39.2 °F 32.0 °F 37.4 °F 93% 29.96 in 10.0 mi South 11.5 mph - N/A Rain Light Rain
5:25 AM 39.2 °F 31.6 °F 37.4 °F 93% 29.97 in 10.0 mi South 12.7 mph - N/A   Overcast
5:58 AM 39.0 °F 31.0 °F 37.0 °F 93% 29.99 in 10.0 mi South 13.8 mph - 0.00 in   Overcast
6:58 AM 39.0 °F 31.8 °F 36.3 °F 90% 29.99 in 10.0 mi SSW 11.5 mph - N/A   Overcast
7:58 AM 38.5 °F 31.1 °F 36.7 °F 93% 29.98 in 10.0 mi South 11.5 mph - N/A   Mostly Cloudy
8:58 AM 39.2 °F 32.5 °F 37.0 °F 92% 29.97 in 10.0 mi South 10.4 mph - N/A   Mostly Cloudy
9:58 AM 41.0 °F 34.3 °F 37.4 °F 87% 29.98 in 10.0 mi SSW 11.5 mph - N/A   Scattered Clouds
10:09 AM 41.0 °F 34.3 °F 37.4 °F 87% 29.94 in 10.0 mi SW 11.5 mph - N/A   Partly Cloudy
10:24 AM 42.8 °F 35.8 °F 37.4 °F 81% 29.93 in 10.0 mi SW 13.8 mph - N/A   Scattered Clouds
10:41 AM 42.8 °F 35.8 °F 39.2 °F 87% 29.92 in 10.0 mi SSW 13.8 mph - N/A   Mostly Cloudy
10:50 AM 42.8 °F 36.2 °F 37.4 °F 81% 29.92 in 10.0 mi SSW 12.7 mph - N/A   Mostly Cloudy
10:58 AM 43.7 °F 36.9 °F 38.3 °F 81% 29.96 in 10.0 mi SSW 13.8 mph - 0.00 in   Mostly Cloudy
11:22 AM 44.6 °F 37.4 °F 37.4 °F 76% 29.92 in 10.0 mi SSW 16.1 mph - N/A   Overcast
11:35 AM 44.6 °F 38.8 °F 39.2 °F 81% 29.91 in 10.0 mi SSW 11.5 mph - N/A   Overcast
11:58 AM 45.9 °F 39.4 °F 38.7 °F 76% 29.94 in 10.0 mi SW 15.0 mph - 0.00 in   Overcast
12:58 PM 48.4 °F - 38.3 °F 68% 29.91 in 10.0 mi SSW 18.4 mph - N/A   Mostly Cloudy
1:00 PM 48.2 °F - 39.2 °F 71% 29.87 in 10.0 mi SSW 16.1 mph 24.2 mph N/A   Mostly Cloudy
1:10 PM 48.2 °F - 37.4 °F 66% 29.86 in 10.0 mi SSW 19.6 mph - N/A   Mostly Cloudy
1:58 PM 49.3 °F - 36.1 °F 61% 29.86 in 10.0 mi SW 18.4 mph 21.9 mph N/A   Mostly Cloudy
2:58 PM 50.0 °F - 35.4 °F 57% 29.82 in 10.0 mi SSW 16.1 mph 21.9 mph N/A   Overcast
3:07 PM 50.0 °F - 35.6 °F 58% 29.79 in 10.0 mi SSW 19.6 mph 26.5 mph N/A Rain Light Rain
3:17 PM 48.2 °F - 35.6 °F 62% 29.78 in 10.0 mi SSW 23.0 mph 27.6 mph N/A   Overcast
3:23 PM 48.2 °F - 35.6 °F 62% 29.79 in 10.0 mi SW 20.7 mph 27.6 mph N/A Rain Light Rain
3:39 PM 44.6 °F 39.7 °F 35.6 °F 71% 29.79 in 10.0 mi SSW 9.2 mph - N/A   Overcast
3:58 PM 46.6 °F - 37.0 °F 69% 29.82 in 10.0 mi SW 20.7 mph 25.3 mph 0.01 in   Scattered Clouds
4:23 PM 46.4 °F 38.3 °F 32.0 °F 57% 29.77 in 10.0 mi SW 23.0 mph 27.6 mph N/A Rain Light Rain
4:33 PM 46.4 °F 39.5 °F 32.0 °F 57% 29.77 in 10.0 mi SW 17.3 mph 27.6 mph N/A   Scattered Clouds
4:36 PM 46.4 °F 39.0 °F 32.0 °F 57% 29.77 in 10.0 mi SW 19.6 mph 25.3 mph N/A   Light Drizzle
4:42 PM 46.4 °F 39.0 °F 32.0 °F 57% 29.77 in 10.0 mi SW 19.6 mph - N/A   Scattered Clouds
4:58 PM 46.2 °F 38.7 °F 34.2 °F 63% 29.80 in 10.0 mi SW 19.6 mph 25.3 mph 0.00 in   Mostly Cloudy
5:22 PM 41.0 °F 31.9 °F 33.8 °F 76% 29.75 in 5.0 mi SSW 19.6 mph 38.0 mph N/A Rain Light Rain
5:33 PM 41.0 °F 34.7 °F 33.8 °F 76% 29.75 in 10.0 mi SSW 10.4 mph 25.3 mph N/A   Overcast
5:58 PM 41.5 °F 32.6 °F 34.5 °F 76% 29.78 in 10.0 mi SSW 19.6 mph 24.2 mph 0.01 in   Overcast
6:07 PM 41.0 °F 31.4 °F 35.6 °F 81% 29.74 in 10.0 mi SSW 21.9 mph 26.5 mph N/A Rain Light Rain
6:17 PM 41.0 °F 33.1 °F 37.4 °F 87% 29.74 in 10.0 mi SW 15.0 mph 27.6 mph N/A   Mostly Cloudy
6:49 PM 42.8 °F 36.2 °F 35.6 °F 76% 29.71 in 10.0 mi South 12.7 mph - N/A   Partly Cloudy
6:58 PM 41.9 °F 34.3 °F 34.9 °F 76% 29.75 in 10.0 mi South 15.0 mph - 0.00 in   Scattered Clouds
7:42 PM 41.0 °F 32.8 °F 35.6 °F 81% 29.70 in 10.0 mi SSW 16.1 mph - N/A   Mostly Cloudy
7:58 PM 40.5 °F 33.2 °F 35.4 °F 82% 29.74 in 10.0 mi South 12.7 mph - 0.00 in   Mostly Cloudy
8:04 PM 39.2 °F 31.2 °F 35.6 °F 87% 29.70 in 10.0 mi South 13.8 mph - N/A   Scattered Clouds
8:05 PM 39.2 °F 30.8 °F 35.6 °F 87% 29.69 in 10.0 mi South 15.0 mph - N/A   Scattered Clouds
8:19 PM 41.0 °F 34.3 °F 35.6 °F 81% 29.71 in 10.0 mi SW 11.5 mph - N/A   Mostly Cloudy
8:58 PM 39.4 °F 30.7 °F 35.2 °F 85% 29.73 in 10.0 mi SSW 16.1 mph - 0.00 in   Mostly Cloudy
9:11 PM 39.2 °F 31.6 °F 35.6 °F 87% 29.67 in 10.0 mi SSW 12.7 mph - N/A   Partly Cloudy
9:58 PM 39.2 °F 30.5 °F 32.9 °F 78% 29.70 in 10.0 mi SW 16.1 mph 25.3 mph 0.00 in   Light Drizzle
10:55 PM 37.4 °F 25.6 °F 30.2 °F 75% 29.66 in 8.0 mi WSW 26.5 mph 35.7 mph N/A Snow Light Snow
10:58 PM 37.0 °F 27.0 °F 29.5 °F 74% 29.70 in 6.0 mi West 18.4 mph 35.7 mph 0.00 in Snow Light Snow
10:59 PM 35.6 °F 26.6 °F 30.2 °F 81% 29.66 in 6.0 mi West 13.8 mph 35.7 mph N/A Snow Light Snow
11:01 PM 35.6 °F 26.2 °F 30.2 °F 81% 29.66 in 6.0 mi West 15.0 mph 35.7 mph N/A Snow Light Snow
11:05 PM 35.6 °F 25.9 °F 28.4 °F 75% 29.66 in 6.0 mi WSW 16.1 mph - N/A Rain Light Rain
11:06 PM 35.6 °F 26.2 °F 28.4 °F 75% 29.66 in 8.0 mi WSW 15.0 mph - N/A   Overcast
11:07 PM 35.6 °F 26.6 °F 28.4 °F 75% 29.66 in 9.0 mi WSW 13.8 mph - N/A   Overcast
11:22 PM 37.4 °F 28.2 °F 26.6 °F 65% 29.66 in 10.0 mi SW 16.1 mph - N/A Rain Light Rain
11:58 PM 34.9 °F 24.2 °F 28.2 °F 77% 29.71 in 10.0 mi SSW 18.4 mph 26.5 mph 0.00 in Snow Light Snow